Find Local Weather

World > North America > United States > Georgia

Americus, Georgia Regional Weather

Lat: 32.07N, Lon: 84.23W
Wx Zone: GAZ104
Warning FLW WEATHER ALERT - WIND ADVISORY (More Info. Click Here) Warning
Feedback
Expires:201804230600;;362720
ASUS42 KFFC 230510
RWRGA 
WEATHER ROUNDUP FOR GEORGIA
NATIONAL WEATHER SERVICE PEACHTREE CITY GA
100 AM EDT MON APR 23 2018

NOTE: "FAIR" INDICATES FEW OR NO CLOUDS BELOW 12,000 FEET WITH NO
SIGNIFICANT WEATHER AND/OR OBSTRUCTIONS TO VISIBILITY. 

* = USE WITH CAUTION. THE STATIONS MARKED WITH AN ASTERISK MAY NOT
REPORT WEATHER SUCH AS PRECIPITATION, FOG, OR THUNDER AND ARE NOT 
QUALITY CONTROLLED BY NWS.

THE REMARK "TC" DENOTES TEMPERATURE READING IN DEGREES CELSIUS.


GAZ059>098-102>109-230600-
CENTRAL GEORGIA
  
CITY           SKY/WX    TMP DP  RH WIND       PRES   REMARKS
AUGUSTA-BUSH   FAIR      60  56  86 E8        30.13F                  
AUGUSTA-DANIEL FAIR      62  55  77 E10       30.14F                  
COLUMBUS       LGT RAIN  64  61  90 SE18G25   29.93F                  
MACON          LGT RAIN  61  59  93 SE15      30.02F                  
ROBINS AFB     LGT RAIN  62  60  93 SE16G22   30.02S                  

  
CITY           SKY/WX    TMP DP  RH WIND       PRES   REMARKS
LAGRANGE*      RAIN      63  62  98 W6        29.97R                  
SYLVANIA*      CLOUDY    64  59  82 E8        30.14S                  
MILLEDGEVILLE* LGT RAIN  61  59  94 SE8G18    30.06F                  
$$


SKY/WX - Weather  TMP - Temperature  DP - Dewpoint  RH - Relative Humidity
WIND - Wind Direction/Speed PRES - Barometric Pressure